Theta_e
352 351 351 350 349 348 346 345 345 346 346 347 347 347 347 346 344 343 344 360 356 355 353 355 357 360 360 359 356 355 356 353 354 354 353 352 352 350 349 349 349 350 349
351 349 350 348 347 345 344 343 343 344 344 345 346 346 347 348 349 350 350 350 356 350 353 356 357 357 359 361 357 355 354 353 353 353 353 353 352 352 349 349 349 349 350
347 346 345 344 341 342 340 340 341 342 341 342 343 341 341 344 345 349 350 354 346 340 338 340 342 351 355 356 357 356 354 353 353 352 351 351 351 352 351 349 349 349 350
338 342 340 336 335 336 335 333 333 334 334 334 331 330 330 336 340 349 347 343 343 342 337 333 336 340 345 345 350 349 347 347 349 350 350 351 351 351 351 351 350 349 350
332 334 332 331 331 330 328 325 326 326 322 321 320 321 329 336 343 342 339 333 329 329 329 327 329 329 331 334 338 341 341 342 344 343 341 343 347 350 349 350 349 349 349
327 330 328 326 325 323 321 321 324 322 321 318 319 322 334 336 340 338 335 331 327 327 327 327 323 320 324 329 333 336 337 337 334 333 333 334 336 339 344 349 349 348 348
323 324 323 322 321 319 320 321 322 320 317 319 321 323 334 336 335 333 330 324 320 320 322 321 321 323 321 325 328 325 326 328 328 328 327 328 330 334 337 339 347 347 347
319 319 319 318 319 317 318 318 319 317 315 316 314 318 320 328 320 324 322 318 317 317 317 319 320 322 322 324 325 321 320 321 322 323 322 322 324 327 331 334 336 339 347
317 318 318 317 316 316 312 315 316 317 312 314 318 315 313 313 311 320 320 316 318 316 316 317 318 319 320 321 320 319 317 317 319 320 319 319 320 322 325 327 330 333 336
315 315 315 315 315 312 313 311 313 315 315 311 312 314 316 314 307 309 313 315 315 314 316 315 316 318 318 318 317 316 315 316 317 316 317 317 318 320 321 322 324 326 331
314 314 315 315 314 312 313 313 314 314 311 311 309 310 312 312 312 308 306 307 311 313 312 314 316 315 317 316 315 316 314 314 314 314 314 315 316 318 319 320 321 322 325
312 313 313 315 314 313 312 311 313 313 312 312 310 310 307 306 305 305 304 307 305 309 311 313 314 313 314 313 314 316 316 316 314 313 313 314 315 316 316 318 319 320 322
310 312 314 313 312 312 312 312 311 311 310 309 310 308 308 307 307 306 305 303 302 306 308 313 312 312 312 311 312 315 314 318 315 315 312 312 313 313 314 315 316 318 319
310 312 312 312 311 311 310 310 308 308 310 308 309 309 307 307 307 306 304 302 300 303 306 310 310 310 310 310 312 315 311 315 316 313 313 314 312 312 312 313 313 314 315
311 310 310 310 309 309 309 310 307 308 308 308 308 309 307 306 307 307 306 305 302 298 299 305 303 313 309 310 311 312 312 314 314 313 314 314 314 312 311 311 311 311 312
312 309 308 308 308 308 308 309 307 307 307 306 306 308 307 306 307 306 306 305 304 302 298 304 304 310 311 309 310 312 310 312 313 313 315 314 313 314 312 312 311 310 311
311 308 307 307 306 307 308 308 307 306 305 306 306 305 305 306 304 305 305 304 303 303 300 302 304 308 311 312 311 311 309 311 310 312 312 312 312 310 311 312 312 312 311
309 307 305 305 305 306 306 305 304 304 304 302 303 303 303 303 305 306 304 304 303 303 300 301 303 303 307 311 311 310 308 307 309 309 311 310 310 310 309 309 309 309 309
305 304 303 304 304 305 306 306 305 305 305 305 304 304 304 304 303 302 303 302 301 301 301 299 299 302 304 305 306 307 308 310 308 309 307 308 308 309 308 308 308 308 307
304 304 304 303 303 303 304 304 305 306 305 305 305 304 304 303 302 301 300 300 301 300 300 298 298 299 301 305 303 301 301 303 303 304 307 307 308 309 308 309 309 309 309
304 304 305 305 305 305 304 305 305 305 306 306 306 305 305 303 302 301 299 300 300 298 297 297 296 297 297 299 299 300 299 301 302 304 304 304 305 307 307 308 310 310 309
305 305 305 304 305 305 301 300 300 303 305 305 306 307 306 306 304 302 303 300 300 297 296 296 295 295 299 299 299 298 297 296 294 300 299 299 302 303 305 308 306 305 305
307 306 306 307 307 308 302 300 302 303 304 305 306 308 306 305 306 305 304 302 300 301 302 300 299 299 298 298 299 297 295 294 293 296 297 295 299 299 303 305 304 304 303
308 307 308 309 309 309 304 301 302 306 305 307 308 309 309 306 306 303 301 300 299 299 301 300 302 300 299 299 298 297 295 294 294 295 296 291 296 296 299 300 301 302 302
309 308 309 309 309 310 304 301 303 307 306 307 308 310 308 306 301 295 298 298 298 299 299 301 299 297 296 297 297 296 293 291 290 292 297 293 294 294 296 297 300 301 301
308 308 308 312 310 311 305 301 302 307 306 305 309 309 305 303 295 294 296 296 294 295 297 297 297 299 300 299 299 298 295 291 290 289 294 291 291 291 288 294 296 301 304
Wind_Speed
4 4 5 6 4 5 5 6 6 6 8 9 6 7 8 9 9 6 7 10 7 6 2 6 9 12 12 11 11 11 11 11 10 11 10 10 10 11 12 11 11 11 12
3 4 3 3 4 4 5 5 6 6 6 8 7 7 8 8 8 7 6 5 15 24 23 18 11 9 10 9 10 10 10 9 9 10 11 11 11 10 13 12 12 12 12
2 5 3 3 5 6 7 6 7 6 7 7 7 8 7 7 6 6 7 8 9 23 22 22 23 23 15 13 8 6 7 6 8 9 10 11 12 11 13 13 13 12 12
4 1 2 4 6 5 5 6 7 7 7 7 7 6 5 5 5 6 8 8 9 8 14 18 21 21 24 22 17 13 12 14 14 11 8 9 11 12 12 13 12 12 12
5 4 4 4 6 5 5 6 6 5 6 6 7 5 2 1 5 8 6 8 9 9 7 12 14 18 19 19 18 17 18 17 16 18 18 19 14 10 12 13 13 13 13
6 6 4 5 5 5 5 6 4 5 4 7 8 3 3 2 6 4 5 7 8 6 8 8 5 7 13 16 17 19 20 20 20 18 18 17 17 15 18 14 14 14 14
6 6 4 3 4 6 6 7 5 3 5 8 9 4 6 5 4 3 5 7 8 7 8 8 7 5 4 10 16 17 19 20 19 18 17 17 17 17 17 17 13 16 16
6 7 5 4 6 5 7 7 7 5 5 8 6 7 4 8 4 7 5 7 7 6 8 8 8 8 8 3 12 17 18 18 18 17 17 17 17 17 17 16 17 18 17
7 7 6 5 5 6 6 7 7 7 4 5 9 6 4 3 4 8 7 6 6 5 7 6 8 7 8 6 6 12 17 18 18 17 16 17 17 17 18 18 19 19 19
7 8 5 6 7 5 7 6 5 4 6 6 4 6 7 7 5 2 3 7 5 6 7 6 7 5 6 5 7 11 17 17 18 16 17 17 17 18 18 18 19 20 20
6 6 5 5 5 5 7 6 6 9 6 6 5 4 3 2 4 3 3 6 6 3 6 4 4 5 6 5 7 10 14 17 16 16 17 17 19 20 20 19 19 20 21
6 5 6 6 6 5 6 6 7 9 8 7 5 5 5 4 5 4 5 6 7 6 4 4 5 5 5 7 11 14 15 16 10 14 16 19 21 20 19 20 20 20 21
6 5 5 4 6 6 6 6 7 7 8 7 8 5 4 5 5 5 6 7 8 7 4 4 5 6 7 9 10 16 20 12 12 10 17 20 19 18 19 19 20 21 21
6 5 5 6 6 5 5 4 5 6 5 6 6 6 4 5 5 5 5 7 8 7 7 5 7 6 10 10 13 19 15 17 14 18 19 19 16 17 17 19 21 23 24
7 6 5 6 5 5 4 4 5 5 4 3 5 5 5 5 4 5 5 5 6 8 9 9 11 9 10 11 14 14 14 16 22 22 16 18 13 13 17 20 21 22 23
8 6 5 5 4 5 4 2 5 5 4 4 4 4 6 6 6 5 6 6 5 7 9 11 11 12 11 11 14 13 15 21 19 19 13 13 16 15 15 20 22 22 22
6 5 4 3 4 5 4 4 4 4 5 5 5 5 6 6 7 6 7 7 7 8 10 11 12 12 15 14 13 11 14 14 12 14 20 20 15 20 20 18 20 22 24
4 4 6 4 3 5 4 4 3 4 4 4 4 4 5 5 6 6 7 8 8 9 10 13 12 12 14 13 13 15 12 14 14 18 18 20 21 19 20 20 22 25 26
4 3 1 3 5 5 5 3 3 3 2 2 4 5 6 6 7 7 8 8 9 9 10 12 13 11 11 12 12 13 13 13 12 22 24 21 23 23 26 27 26 26 25
6 7 7 5 4 4 4 3 1 1 4 5 4 5 5 6 7 8 8 10 9 11 11 12 13 13 12 12 11 13 13 12 14 15 19 21 25 25 27 26 22 23 21
3 4 6 6 4 4 5 3 5 5 4 5 5 7 7 6 11 8 7 9 11 11 12 13 13 14 13 13 14 12 14 14 15 14 14 15 14 14 14 21 22 23 17
8 8 7 6 6 7 10 6 4 7 8 8 9 8 8 11 1 10 13 11 11 13 14 13 14 15 16 14 14 14 15 15 18 10 15 19 14 16 15 14 22 25 25
9 8 8 8 8 9 10 11 11 8 9 10 11 10 9 8 8 10 7 11 15 16 17 16 17 15 16 15 16 17 17 16 18 14 16 22 13 18 15 17 28 29 29
9 8 9 10 9 9 12 12 12 10 11 12 13 12 9 10 11 8 12 14 15 16 16 14 15 14 16 16 16 17 18 19 16 13 13 19 14 19 16 18 31 31 33
9 10 9 10 10 10 11 13 10 10 12 13 11 9 9 12 8 5 8 14 17 16 16 16 15 21 24 15 16 14 13 14 15 14 13 16 16 18 16 17 16 29 33
9 9 10 8 9 11 7 14 14 9 10 11 10 8 9 5 8 5 9 14 17 16 16 18 17 16 15 16 20 14 11 12 14 17 14 15 16 15 17 13 16 16 11
Wind_Direction
6 311 14 308 335 345 341 330 325 340 310 294 318 335 317 318 299 302 309 150 141 160 357 310 280 275 263 237 224 223 225 230 220 220 223 225 229 237 248 241 241 234 228
0 304 284 328 336 338 335 327 346 311 313 304 307 308 306 295 299 310 319 323 77 59 44 36 14 326 299 273 230 228 237 235 233 224 222 227 229 234 246 247 244 241 233
67 322 4 330 8 332 327 329 323 314 303 297 313 295 299 288 300 313 339 25 104 74 52 40 39 30 41 50 50 32 13 268 242 240 234 228 229 227 237 242 245 245 241
21 296 358 20 354 323 333 339 325 320 317 327 311 297 315 315 343 55 36 19 18 23 63 44 44 40 47 41 47 47 42 39 37 24 309 252 234 229 231 235 239 241 244
25 342 25 35 322 341 0 341 338 356 325 320 298 275 358 307 28 62 66 64 49 42 42 44 47 43 37 38 41 42 40 40 37 37 33 28 8 264 235 229 232 235 237
21 337 57 6 340 21 20 355 336 351 349 336 302 334 334 60 110 114 52 44 29 38 44 50 61 46 45 48 45 42 37 31 27 21 17 11 6 359 5 251 231 234 233
38 9 35 24 69 44 23 6 330 69 16 350 272 194 120 146 64 49 56 43 12 33 44 32 25 17 80 72 70 49 32 22 14 9 6 1 355 354 356 345 297 240 235
42 70 16 46 358 93 36 18 19 325 67 22 348 276 192 156 135 64 47 54 22 30 33 42 28 37 10 96 98 60 33 18 8 3 356 353 347 342 342 335 338 342 261
78 68 55 39 54 33 58 17 355 26 38 70 30 344 299 32 331 141 112 67 24 32 15 26 44 41 26 31 18 35 22 8 360 355 352 348 343 340 336 329 327 321 319
80 86 82 76 52 52 51 36 6 341 11 34 47 62 45 19 358 211 109 70 0 22 32 11 29 43 24 16 18 67 17 356 351 351 346 341 338 334 330 324 319 316 315
89 96 90 79 64 80 70 55 39 26 50 29 23 18 14 132 33 344 321 355 5 3 7 21 11 19 21 13 351 26 1 343 340 341 339 335 331 327 323 319 317 313 313
117 90 92 89 75 80 63 58 58 50 49 28 27 18 21 8 7 352 333 337 335 341 8 8 17 14 7 359 334 3 342 325 337 333 334 327 323 322 319 318 314 312 310
113 95 98 84 89 72 67 54 59 60 52 43 15 2 25 27 357 357 345 349 333 333 354 82 21 1 6 340 341 342 327 323 331 345 325 315 313 317 318 317 314 311 308
99 106 94 95 92 85 77 77 72 67 45 65 40 8 355 17 5 13 360 349 336 330 354 350 356 347 343 333 322 333 324 323 330 326 307 293 294 306 310 312 309 307 305
119 94 94 95 94 79 83 119 64 72 81 42 76 23 350 15 8 356 352 356 338 327 326 333 330 332 336 326 323 316 314 320 319 297 299 293 279 283 297 303 303 300 298
89 110 93 102 100 87 71 349 127 82 65 43 53 35 7 12 4 348 352 341 335 321 306 315 318 324 317 312 304 317 315 311 304 299 297 322 306 289 284 289 292 293 292
126 103 94 101 97 85 83 102 103 91 79 58 35 24 24 11 1 2 341 339 331 320 310 307 313 314 316 308 310 309 310 298 294 315 320 308 311 302 297 290 284 285 287
123 129 125 145 119 112 109 112 78 89 82 73 39 23 14 5 346 348 332 342 316 320 314 305 307 309 303 305 313 309 311 304 307 306 295 309 297 301 297 293 288 283 282
43 68 54 205 155 156 157 170 129 110 81 40 24 357 356 353 347 337 329 329 323 322 319 304 305 299 306 302 313 306 304 304 308 316 309 310 302 298 292 286 279 275 269
186 185 186 192 194 202 195 193 158 359 4 0 339 334 310 295 337 329 318 324 322 324 309 306 305 306 307 311 313 320 309 308 308 309 302 292 295 291 283 277 293 293 268
214 219 199 210 239 252 238 32 344 319 311 293 297 283 291 329 275 265 292 315 313 312 311 306 305 310 309 321 307 312 303 308 301 301 299 302 297 294 297 288 280 281 281
217 223 232 233 233 252 126 155 247 287 301 292 286 289 295 280 159 214 252 260 277 293 299 300 303 305 296 317 313 314 309 301 298 303 300 287 290 287 290 288 292 293 286
213 235 247 242 241 248 178 196 207 253 273 280 285 277 281 296 323 302 320 308 308 297 279 282 287 292 311 317 312 308 305 296 289 296 292 284 301 282 286 285 282 278 278
241 244 244 237 242 243 198 204 209 253 270 273 270 270 279 287 289 292 289 295 305 305 300 298 297 304 305 307 299 299 294 285 282 281 276 281 289 279 288 282 281 277 272
228 226 238 249 250 256 194 200 196 259 270 279 276 273 273 283 306 119 294 299 307 302 299 295 314 307 288 260 288 291 283 287 286 287 287 289 285 283 279 279 278 274 269
240 249 247 249 254 260 236 189 201 263 277 289 283 282 260 298 72 22 314 310 305 303 310 309 295 287 295 309 295 286 292 292 294 291 285 283 285 289 286 273 266 264 274